Location: Newark
(58.8333°N, 23.5833°E)
Time: 10:46:21
(UTC+00:00)

Tiros 1 despin weight - Pass Details

Date: 26 November 2019
Orbit: 594 x 642 km, 48.2° (Epoch: 14 December)

Event Time Altitude Azimuth Distance (km) Brightness Sun altitude
Rises 09:30:00 0° 209° (SSW) 2,825 ? 9.8°
Reaches altitude 10° 09:33:27 10° 181° (S) 1,924 ? 9.8°
Maximum altitude 09:35:24 13° 154° (SSE) 1,750 ? 9.9°
Drops below altitude 10° 09:37:20 10° 128° (SE) 1,927 ? 9.9°
Sets 09:40:48 0° 100° (E) 2,836 ? 10.0°
